Louisa, VA

5:55 AM EST on December 03, 2016 (GMT -0500)
Louisa County-Freeman

Weather History for KLKU - December, 2013

Change the Weather History Date:

Wednesday, December 4, 2013

  Actual Average (KCHO) Record (KCHO)
Temperature  
Mean Temperature 52 °F 41 °F  
Max Temperature 60 °F 50 °F 73 °F (2012)
Min Temperature 44 °F 31 °F 11 °F (2002)
Degree Days  
Heating Degree Days 13 24  
Month to date heating degree days 95  
Since 1 July heating degree days 986  
Cooling Degree Days 0 0  
Month to date cooling degree days 0  
Year to date cooling degree days 1035  
Growing Degree Days 2 (Base 50)    
Moisture  
Dew Point 48 °F    
Average Humidity 82    
Maximum Humidity 93    
Minimum Humidity 67    
Precipitation  
Precipitation 0.00 in 0.12 in 3.46 in (1948)
Month to date precipitation 0.50  
Year to date precipitation 40.06  
Sea Level Pressure  
Sea Level Pressure 30.02 in    
Wind  
Wind Speed 2 mph (South)    
Max Wind Speed 8 mph    
Max Gust Speed -    
Visibility 10 miles    
Events      
T = Trace of Precipitation, MM = Missing Value Source: NWS Daily Summary

Daily Weather History Graph

Daily Weather History Graph

Search for Another Location

Airport or City:

Trip Planner

Search our weather history database for the weather conditions in past years. The results will help you decide how hot, cold, wet, or windy it might be!

Date:

Astronomy

Dec. 04, 2013 Rise Set
Actual Time 7:12 AM EST 4:52 PM EST
Civil Twilight 6:42 AM EST 5:21 PM EST
Nautical Twilight 6:10 AM EST 5:54 PM EST
Astronomical Twilight 5:38 AM EST 6:25 PM EST
Moon 8:39 AM EST (12/4) 6:59 PM EST (12/4)
Length of Visible Light 10h 38m
Length of Day
9h 40m
Waxing Crescent, 4% of the Moon is Illuminated
Dec 4
Waxing Crescent
Dec 9
First Quarter
Dec 17
Full
Dec 25
Last Quarter
Jan 1
New

Hourly Weather History & Observations

Time (EST) Temp. Dew Point Humidity Pressure Visibility Wind Dir Wind Speed Gust Speed Precip Events Conditions
12:15 AM 48.2 °F 42.8 °F 82% 29.99 in 10.0 mi SSW 3.5 mph - N/A   Overcast
12:35 AM 48.2 °F 42.8 °F 82% 29.99 in 10.0 mi SSW 3.5 mph - N/A   Overcast
12:55 AM 48.2 °F 42.8 °F 82% 29.99 in 10.0 mi Calm Calm - N/A   Overcast
1:15 AM 46.4 °F 42.8 °F 87% 29.99 in 10.0 mi Calm Calm - N/A   Overcast
1:35 AM 46.4 °F 42.8 °F 87% 29.98 in 10.0 mi Calm Calm - N/A   Overcast
1:55 AM 46.4 °F 42.8 °F 87% 29.98 in 10.0 mi Calm Calm - N/A   Mostly Cloudy
2:08 AM 44.6 °F 42.8 °F 93% 29.99 in 10.0 mi Calm Calm - N/A   Overcast
2:15 AM 46.4 °F 42.8 °F 87% 29.99 in 10.0 mi Calm Calm - N/A   Overcast
2:35 AM 48.2 °F 42.8 °F 82% 30.00 in 10.0 mi Calm Calm - N/A   Overcast
2:55 AM 48.2 °F 42.8 °F 82% 30.01 in 10.0 mi Calm Calm - N/A   Overcast
3:15 AM 48.2 °F 42.8 °F 82% 30.01 in 10.0 mi Calm Calm - N/A   Overcast
3:35 AM 48.2 °F 42.8 °F 82% 30.00 in 10.0 mi Calm Calm - N/A   Overcast
3:55 AM 48.2 °F 42.8 °F 82% 30.00 in 10.0 mi Calm Calm - N/A   Overcast
4:07 AM 48.2 °F 42.8 °F 82% 30.00 in 10.0 mi Calm Calm - N/A   Overcast
4:15 AM 48.2 °F 42.8 °F 82% 30.00 in 10.0 mi Calm Calm - N/A   Overcast
4:35 AM 48.2 °F 42.8 °F 82% 29.99 in 10.0 mi South 3.5 mph - N/A   Overcast
4:55 AM 48.2 °F 42.8 °F 82% 29.99 in 10.0 mi Calm Calm - N/A   Overcast
5:15 AM 48.2 °F 42.8 °F 82% 29.98 in 10.0 mi SSE 4.6 mph - N/A   Mostly Cloudy
5:35 AM 48.2 °F 42.8 °F 82% 29.99 in 10.0 mi South 5.8 mph - N/A   Mostly Cloudy
5:55 AM 48.2 °F 42.8 °F 82% 29.99 in 10.0 mi SSE 3.5 mph - N/A   Mostly Cloudy
6:15 AM 48.2 °F 42.8 °F 82% 29.99 in 10.0 mi SSE 5.8 mph - N/A   Mostly Cloudy
6:35 AM 48.2 °F 44.6 °F 87% 30.01 in 10.0 mi SSE 3.5 mph - N/A   Overcast
6:55 AM 48.2 °F 44.6 °F 87% 30.01 in 10.0 mi South 3.5 mph - N/A   Overcast
7:15 AM 48.2 °F 44.6 °F 87% 30.02 in 10.0 mi Calm Calm - N/A   Overcast
7:35 AM 48.2 °F 44.6 °F 87% 30.02 in 10.0 mi Calm Calm - N/A   Overcast
7:55 AM 48.2 °F 44.6 °F 87% 30.04 in 10.0 mi Calm Calm - N/A   Overcast
8:15 AM 48.2 °F 44.6 °F 87% 30.04 in 10.0 mi Calm Calm - N/A   Overcast
8:35 AM 48.2 °F 44.6 °F 87% 30.05 in 10.0 mi South 3.5 mph - N/A   Overcast
8:55 AM 50.0 °F 46.4 °F 87% 30.05 in 7.0 mi SSW 3.5 mph - N/A   Overcast
9:15 AM 51.8 °F 46.4 °F 82% 30.06 in 7.0 mi SSW 3.5 mph - N/A   Overcast
9:35 AM 51.8 °F 46.4 °F 82% 30.05 in 10.0 mi Calm Calm - N/A   Overcast
9:55 AM 53.6 °F 48.2 °F 82% 30.05 in 10.0 mi SSW 4.6 mph - N/A   Overcast
10:15 AM 55.4 °F 48.2 °F 77% 30.06 in 10.0 mi South 6.9 mph - N/A   Mostly Cloudy
10:35 AM 57.2 °F 48.2 °F 72% 30.06 in 10.0 mi SSW 4.6 mph - N/A   Scattered Clouds
10:55 AM 57.2 °F 48.2 °F 72% 30.06 in 10.0 mi WSW 4.6 mph - N/A   Scattered Clouds
11:15 AM 57.2 °F 48.2 °F 72% 30.05 in 10.0 mi SW 3.5 mph - N/A   Overcast
11:35 AM 59.0 °F 48.2 °F 67% 30.05 in 10.0 mi West 6.9 mph - N/A   Overcast
11:55 AM 59.0 °F 48.2 °F 67% 30.03 in 10.0 mi WSW 4.6 mph - N/A   Mostly Cloudy
12:15 PM 60.8 °F 50.0 °F 68% 30.03 in 10.0 mi West 3.5 mph - N/A   Scattered Clouds
12:35 PM 59.0 °F 48.2 °F 67% 30.02 in 10.0 mi Calm Calm - N/A   Scattered Clouds
12:55 PM 60.8 °F 50.0 °F 68% 30.01 in 10.0 mi SSW 8.1 mph - N/A   Overcast
1:15 PM 60.8 °F 50.0 °F 68% 30.01 in 10.0 mi SSW 6.9 mph - N/A   Mostly Cloudy
1:35 PM 59.0 °F 50.0 °F 72% 30.01 in 10.0 mi SW 5.8 mph - N/A   Overcast
1:55 PM 59.0 °F 50.0 °F 72% 30.00 in 10.0 mi SW 6.9 mph - N/A   Overcast
2:15 PM 59.0 °F 50.0 °F 72% 30.00 in 10.0 mi SSW 3.5 mph - N/A   Overcast
2:35 PM 59.0 °F 50.0 °F 72% 30.00 in 10.0 mi SSW 3.5 mph - N/A   Overcast
2:55 PM 59.0 °F 50.0 °F 72% 30.00 in 10.0 mi South 3.5 mph - N/A   Overcast
3:15 PM 60.8 °F 50.0 °F 68% 30.00 in 10.0 mi SSW 3.5 mph - N/A   Overcast
3:35 PM 60.8 °F 50.0 °F 68% 30.00 in 10.0 mi Calm Calm - N/A   Overcast
3:55 PM 59.0 °F 51.8 °F 77% 30.00 in 10.0 mi SSE 4.6 mph - N/A   Overcast
4:15 PM 57.2 °F 50.0 °F 77% 30.00 in 10.0 mi South 3.5 mph - N/A   Overcast
4:35 PM 57.2 °F 50.0 °F 77% 30.00 in 10.0 mi South 3.5 mph - N/A   Scattered Clouds
4:55 PM 55.4 °F 50.0 °F 82% 30.01 in 10.0 mi Calm Calm - N/A   Scattered Clouds
5:15 PM 55.4 °F 50.0 °F 82% 30.02 in 10.0 mi Calm Calm - N/A   Mostly Cloudy
5:35 PM 55.4 °F 50.0 °F 82% 30.02 in 10.0 mi Calm Calm - N/A   Overcast
5:55 PM 55.4 °F 51.8 °F 88% 30.03 in 10.0 mi SSE 3.5 mph - N/A   Overcast
6:15 PM 55.4 °F 51.8 °F 88% 30.03 in 10.0 mi Calm Calm - N/A   Overcast
6:35 PM 55.4 °F 51.8 °F 88% 30.04 in 10.0 mi Calm Calm - N/A   Overcast
6:55 PM 55.4 °F 51.8 °F 88% 30.04 in 10.0 mi Calm Calm - N/A   Overcast
7:15 PM 55.4 °F 51.8 °F 88% 30.04 in 10.0 mi SSE 3.5 mph - N/A   Overcast
7:35 PM 55.4 °F 51.8 °F 88% 30.04 in 10.0 mi SSE 3.5 mph - N/A   Overcast
7:55 PM 55.4 °F 51.8 °F 88% 30.05 in 10.0 mi SSE 4.6 mph - N/A   Overcast
8:15 PM 55.4 °F 51.8 °F 88% 30.05 in 10.0 mi SSE 3.5 mph - N/A   Overcast
8:35 PM 55.4 °F 51.8 °F 88% 30.05 in 10.0 mi SSE 3.5 mph - N/A   Overcast
8:55 PM 55.4 °F 51.8 °F 88% 30.06 in 7.0 mi South 4.6 mph - N/A   Overcast
9:15 PM 55.4 °F 51.8 °F 88% 30.06 in 7.0 mi South 5.8 mph - N/A   Overcast
9:35 PM 55.4 °F 51.8 °F 88% 30.06 in 10.0 mi SSE 3.5 mph - N/A   Overcast
9:55 PM 55.4 °F 51.8 °F 88% 30.05 in 10.0 mi SE 4.6 mph - N/A   Overcast
10:15 PM 55.4 °F 51.8 °F 88% 30.05 in 7.0 mi SE 3.5 mph - N/A   Overcast
10:35 PM 55.4 °F 51.8 °F 88% 30.05 in 7.0 mi SE 5.8 mph - N/A   Overcast
10:55 PM 55.4 °F 51.8 °F 88% 30.05 in 7.0 mi SSE 4.6 mph - N/A   Overcast
11:15 PM 55.4 °F 51.8 °F 88% 30.05 in 10.0 mi SSE 4.6 mph - N/A   Overcast
11:35 PM 55.4 °F 51.8 °F 88% 30.05 in 10.0 mi SE 6.9 mph - N/A   Overcast
11:55 PM 55.4 °F 51.8 °F 88% 30.05 in 10.0 mi Calm Calm - N/A   Overcast